| time (UTC) | temp F | wind direction | speed knots | gust knots | rain 1hr in | rain 24hr in | rain mn in | humidity % | barometer mb |
| 20260906214832 | 90 | 188 | 2.6 | 13.0 | 0.00 | 0.00 | 0.00 | 35 | 1018.9 |
| 20260906214555 | 90 | 116 | 2.6 | 13.0 | 0.00 | 0.00 | 0.00 | 33 | 1019.0 |
| 20260906213820 | 90 | 127 | 2.6 | 7.8 | 0.00 | 0.00 | 0.00 | 37 | 1019.1 |
| 20260906213314 | 90 | 132 | 1.7 | 7.8 | 0.00 | 0.00 | 0.00 | 34 | 1019.3 |
| 20260906213034 | 90 | 113 | 1.7 | 5.2 | 0.00 | 0.00 | 0.00 | 34 | 1019.1 |
| 20260906212306 | 89 | 188 | 2.6 | 7.0 | 0.00 | 0.00 | 0.00 | 37 | 1019.3 |
| 20260906211756 | 90 | 93 | 1.7 | 7.0 | 0.00 | 0.00 | 0.00 | 33 | 1019.3 |
| 20260906211250 | 90 | 107 | 1.7 | 5.2 | 0.00 | 0.00 | 0.00 | 34 | 1019.4 |
| 20260906210745 | 90 | 137 | 1.7 | 6.1 | 0.00 | 0.00 | 0.00 | 34 | 1019.4 |
| 20260906210459 | 89 | 163 | 1.7 | 7.8 | 0.00 | 0.00 | 0.00 | 34 | 1019.5 |
| 20260906205732 | 89 | 182 | 1.7 | 7.8 | 0.00 | 0.00 | 0.00 | 35 | 1019.5 |
| 20260906205226 | 89 | 172 | 1.7 | 6.1 | 0.00 | 0.00 | 0.00 | 37 | 1019.6 |
| 20260906204720 | 88 | 134 | 2.6 | 9.6 | 0.00 | 0.00 | 0.00 | 38 | 1019.6 |
| 20260906204214 | 88 | 167 | 2.6 | 9.6 | 0.00 | 0.00 | 0.00 | 37 | 1019.7 |
| 20260906203708 | 88 | 174 | 2.6 | 8.7 | 0.00 | 0.00 | 0.00 | 41 | 1019.9 |
| 20260906203430 | 88 | 215 | 3.5 | 8.7 | 0.00 | 0.00 | 0.00 | 36 | 1019.9 |
| 20260906202656 | 88 | 199 | 2.6 | 7.8 | 0.00 | 0.00 | 0.00 | 38 | 1020.0 |
| 20260906202150 | 88 | 204 | 2.6 | 7.0 | 0.00 | 0.00 | 0.00 | 38 | 1020.0 |
| 20260906201644 | 88 | 209 | 1.7 | 7.0 | 0.00 | 0.00 | 0.00 | 36 | 1020.1 |
| 20260906201138 | 88 | 101 | 2.6 | 7.8 | 0.00 | 0.00 | 0.00 | 41 | 1020.1 |
| 20260906200852 | 87 | 83 | 3.5 | 7.8 | 0.00 | 0.00 | 0.00 | 39 | 1020.1 |
| 20260906200349 | 87 | 180 | 2.6 | 7.8 | 0.00 | 0.00 | 0.00 | 37 | 1020.1 |
| 20260906195621 | 88 | 190 | 1.7 | 5.2 | 0.00 | 0.00 | 0.00 | 38 | 1020.2 |
| 20260906195334 | 88 | 151 | 1.7 | 3.5 | 0.00 | 0.00 | 0.00 | 39 | 1020.2 |
| 20260906194608 | 87 | 143 | 1.7 | 7.0 | 0.00 | 0.00 | 0.00 | 37 | 1020.3 |
| 20260906194328 | 87 | 138 | 2.6 | 7.0 | 0.00 | 0.00 | 0.00 | 36 | 1020.5 |
| 20260906193556 | 87 | 192 | 2.6 | 7.0 | 0.00 | 0.00 | 0.00 | 37 | 1020.5 |
| 20260906193315 | 87 | 194 | 1.7 | 6.1 | 0.00 | 0.00 | 0.00 | 34 | 1020.6 |
| 20260906192544 | 87 | 105 | 1.7 | 5.2 | 0.00 | 0.00 | 0.00 | 36 | 1020.6 |
| 20260906192039 | 87 | 135 | 1.7 | 7.0 | 0.00 | 0.00 | 0.00 | 41 | 1020.6 |
| 20260906191533 | 86 | 234 | 2.6 | 8.7 | 0.00 | 0.00 | 0.00 | 37 | 1020.7 |
| 20260906191026 | 87 | 222 | 1.7 | 6.1 | 0.00 | 0.00 | 0.00 | 34 | 1020.8 |
| 20260906190520 | 87 | 205 | 1.7 | 5.2 | 0.00 | 0.00 | 0.00 | 35 | 1020.8 |
| 20260906190236 | 88 | 185 | 1.7 | 5.2 | 0.00 | 0.00 | 0.00 | 35 | 1021.1 |
| 20260906185508 | 88 | 87 | 1.7 | 5.2 | 0.00 | 0.00 | 0.00 | 39 | 1021.2 |
| 20260906185002 | 87 | 180 | 1.7 | 4.3 | 0.00 | 0.00 | 0.00 | 39 | 1021.2 |
| 20260906184457 | 87 | 171 | 1.7 | 4.3 | 0.00 | 0.00 | 0.00 | 36 | 1021.3 |
| 20260906183444 | 87 | 115 | 1.7 | 6.1 | 0.00 | 0.00 | 0.00 | 37 | 1021.5 |
| 20260906182939 | 87 | 102 | 0.9 | 5.2 | 0.00 | 0.00 | 0.00 | 41 | 1021.7 |
| 20260906182433 | 86 | 130 | 0.9 | 4.3 | 0.00 | 0.00 | 0.00 | 39 | 1021.8 |
| 20260906182146 | 85 | 71 | 1.7 | 4.3 | 0.00 | 0.00 | 0.00 | 40 | 1021.8 |
| 20260906181420 | 85 | 90 | 1.7 | 6.1 | 0.00 | 0.00 | 0.00 | 38 | 1021.9 |
| 20260906180914 | 85 | 105 | 1.7 | 6.1 | 0.00 | 0.00 | 0.00 | 38 | 1022.0 |
| 20260906180408 | 85 | 197 | 1.7 | 5.2 | 0.00 | 0.00 | 0.00 | 39 | 1022.0 |
| 20260906175902 | 85 | 101 | 0.9 | 3.5 | 0.00 | 0.00 | 0.00 | 37 | 1022.1 |
| 20260906175356 | 85 | 107 | 0.9 | 3.5 | 0.00 | 0.00 | 0.00 | 38 | 1022.4 |
| 20260906175111 | 84 | 180 | 1.7 | 3.5 | 0.00 | 0.00 | 0.00 | 42 | 1022.3 |
| 20260906174344 | 84 | 106 | 0.9 | 5.2 | 0.00 | 0.00 | 0.00 | 42 | 1022.4 |
| 20260906174333 | 83 | 95 | 0.9 | 5.2 | 0.00 | 0.00 | 0.00 | 43 | 1022.5 |
| 20260906173345 | 83 | 203 | 1.7 | 7.0 | 0.00 | 0.00 | 0.00 | 44 | 1022.5 |
| 20260906172846 | 83 | 222 | 0.9 | 7.0 | 0.00 | 0.00 | 0.00 | 39 | 1022.6 |
| 20260906172346 | 83 | 105 | 0.9 | 4.3 | 0.00 | 0.00 | 0.00 | 43 | 1022.7 |
| 20260906171845 | 82 | 105 | 0.9 | 4.3 | 0.00 | 0.00 | 0.00 | 44 | 1022.7 |
| 20260906171347 | 82 | 165 | 0.9 | 3.5 | 0.00 | 0.00 | 0.00 | 40 | 1022.7 |
| 20260906170846 | 81 | 142 | 0.9 | 2.6 | 0.00 | 0.00 | 0.00 | 45 | 1022.9 |
| 20260906170346 | 81 | 152 | 0.9 | 3.5 | 0.00 | 0.00 | 0.00 | 44 | 1022.9 |
| 20260906170339 | 80 | 214 | 1.7 | 3.5 | 0.00 | 0.00 | 0.00 | 43 | 1022.9 |
| 20260906165347 | 81 | 199 | 1.7 | 5.2 | 0.00 | 0.00 | 0.00 | 41 | 1022.9 |
| 20260906164841 | 81 | 198 | 1.7 | 5.2 | 0.00 | 0.00 | 0.00 | 42 | 1023.0 |
| 20260906164826 | 81 | 156 | 0.9 | 2.6 | 0.00 | 0.00 | 0.00 | 39 | 1023.0 |
| 20260906163841 | 80 | 157 | 0.9 | 4.3 | 0.00 | 0.00 | 0.00 | 42 | 1023.0 |
| 20260906163341 | 80 | 170 | 0.9 | 4.3 | 0.00 | 0.00 | 0.00 | 41 | 1023.0 |
| 20260906162842 | 80 | 200 | 0.9 | 3.5 | 0.00 | 0.00 | 0.00 | 40 | 1023.0 |
| 20260906162340 | 79 | 193 | 0.9 | 4.3 | 0.00 | 0.00 | 0.00 | 42 | 1023.0 |
| 20260906161841 | 79 | 197 | 0.9 | 4.3 | 0.00 | 0.00 | 0.00 | 39 | 1023.0 |
| 20260906161342 | 78 | 135 | 0.9 | 2.6 | 0.00 | 0.00 | 0.00 | 42 | 1023.0 |
| 20260906161103 | 77 | 134 | 0.0 | 1.7 | 0.00 | 0.00 | 0.00 | 46 | 1023.0 |
| 20260906160336 | 76 | 135 | 0.0 | 1.7 | 0.00 | 0.00 | 0.00 | 48 | 1023.0 |
| 20260906155836 | 76 | 135 | 0.9 | 2.6 | 0.00 | 0.00 | 0.00 | 49 | 1023.0 |
| 20260906155339 | 75 | 134 | 0.0 | 2.6 | 0.00 | 0.00 | 0.00 | 48 | 1022.9 |
| 20260906155329 | 75 | 155 | 0.9 | 3.5 | 0.00 | 0.00 | 0.00 | 48 | 1022.9 |
| 20260906154338 | 74 | 156 | 0.9 | 3.5 | 0.00 | 0.00 | 0.00 | 48 | 1022.9 |
| 20260906153837 | 74 | 163 | 0.9 | 3.5 | 0.00 | 0.00 | 0.00 | 51 | 1022.9 |
| 20260906153338 | 74 | 121 | 0.9 | 1.7 | 0.00 | 0.00 | 0.00 | 49 | 1022.9 |
| 20260906152837 | 74 | 117 | 0.0 | 2.6 | 0.00 | 0.00 | 0.00 | 51 | 1022.7 |
| 20260906152338 | 73 | 114 | 0.0 | 2.6 | 0.00 | 0.00 | 0.00 | 50 | 1022.7 |
| 20260906151834 | 73 | 113 | 0.9 | 2.6 | 0.00 | 0.00 | 0.00 | 52 | 1022.9 |
| 20260906151333 | 73 | 132 | 0.9 | 1.7 | 0.00 | 0.00 | 0.00 | 53 | 1022.7 |
| 20260906150829 | 72 | 135 | 0.0 | 1.7 | 0.00 | 0.00 | 0.00 | 53 | 1022.7 |
| 20260906150331 | 72 | 134 | 0.9 | 1.7 | 0.00 | 0.00 | 0.00 | 55 | 1022.7 |
| 20260906145829 | 71 | 134 | 0.9 | 1.7 | 0.00 | 0.00 | 0.00 | 55 | 1022.6 |
| 20260906145329 | 70 | 135 | 0.0 | 0.9 | 0.00 | 0.00 | 0.00 | 56 | 1022.6 |
| 20260906145314 | 70 | 135 | 0.0 | 0.9 | 0.00 | 0.00 | 0.00 | 57 | 1022.5 |
| 20260906144326 | 69 | 135 | 0.0 | 0.0 | 0.00 | 0.00 | 0.00 | 58 | 1022.5 |
| 20260906143823 | 69 | 135 | 0.0 | 0.9 | 0.00 | 0.00 | 0.00 | 58 | 1022.5 |
| 20260906143323 | 69 | 135 | 0.0 | 0.9 | 0.00 | 0.00 | 0.00 | 61 | 1022.6 |
| 20260906142822 | 68 | 135 | 0.0 | 0.9 | 0.00 | 0.00 | 0.00 | 60 | 1022.5 |
| 20260906142323 | 67 | 135 | 0.0 | 1.7 | 0.00 | 0.00 | 0.00 | 60 | 1022.5 |
| 20260906141824 | 66 | 135 | 0.0 | 1.7 | 0.00 | 0.00 | 0.00 | 63 | 1022.5 |
| 20260906141641 | 65 | 108 | 0.0 | 0.9 | 0.00 | 0.00 | 0.00 | 64 | 1022.5 |
| 20260906141553 | 65 | 108 | 0.0 | 1.7 | 0.00 | 0.00 | 0.00 | 68 | 1022.5 |
| 20260906140323 | 64 | 108 | 0.0 | 1.7 | 0.00 | 0.00 | 0.00 | 71 | 1022.5 |
| 20260906135822 | 63 | 98 | 0.0 | 0.0 | 0.00 | 0.00 | 0.00 | 71 | 1022.4 |
| 20260906135317 | 62 | 98 | 0.0 | 0.9 | 0.00 | 0.00 | 0.00 | 74 | 1022.4 |
| 20260906134811 | 62 | 98 | 0.0 | 0.9 | 0.00 | 0.00 | 0.00 | 75 | 1022.3 |
| 20260906134306 | 61 | 97 | 0.0 | 0.0 | 0.00 | 0.00 | 0.00 | 77 | 1022.3 |
| 20260906133758 | 60 | 97 | 0.0 | 0.0 | 0.00 | 0.00 | 0.00 | 78 | 1022.1 |
| 20260906133517 | 60 | 97 | 0.0 | 0.0 | 0.00 | 0.00 | 0.00 | 78 | 1022.1 |
| 20260906133018 | 59 | 97 | 0.0 | 0.0 | 0.00 | 0.00 | 0.00 | 78 | 1022.0 |
| 20260906132241 | 59 | 97 | 0.0 | 0.0 | 0.00 | 0.00 | 0.00 | 79 | 1022.0 |
| 20260906131735 | 59 | 97 | 0.0 | 0.0 | 0.00 | 0.00 | 0.00 | 77 | 1022.0 |
| 20260906131228 | 59 | 97 | 0.0 | 0.9 | 0.00 | 0.00 | 0.00 | 77 | 1022.0 |
| 20260906130722 | 59 | 97 | 0.0 | 0.9 | 0.00 | 0.00 | 0.00 | 77 | 1022.0 |
| 20260906130216 | 59 | 331 | 0.0 | 0.0 | 0.00 | 0.00 | 0.00 | 76 | 1021.9 |
| 20260906125708 | 58 | 331 | 0.0 | 0.0 | 0.00 | 0.00 | 0.00 | 76 | 1022.0 |
| 20260906125203 | 58 | 331 | 0.0 | 0.0 | 0.00 | 0.00 | 0.00 | 76 | 1022.0 |
| 20260906124657 | 58 | 331 | 0.0 | 0.0 | 0.00 | 0.00 | 0.00 | 76 | 1022.0 |
| 20260906124643 | 58 | 331 | 0.0 | 0.0 | 0.00 | 0.00 | 0.00 | 75 | 1022.1 |
| 20260906123645 | 58 | 331 | 0.0 | 0.9 | 0.00 | 0.00 | 0.00 | 75 | 1022.1 |
| 20260906123138 | 58 | 331 | 0.0 | 0.9 | 0.00 | 0.00 | 0.00 | 76 | 1022.1 |
| 20260906122855 | 58 | 331 | 0.0 | 1.7 | 0.00 | 0.00 | 0.00 | 76 | 1022.1 |
| 20260906122126 | 58 | 331 | 0.0 | 1.7 | 0.00 | 0.00 | 0.00 | 77 | 1022.0 |
| 20260906121621 | 58 | 355 | 0.0 | 0.0 | 0.00 | 0.00 | 0.00 | 77 | 1022.0 |
| 20260906121115 | 58 | 351 | 0.0 | 0.0 | 0.00 | 0.00 | 0.00 | 76 | 1022.0 |
| 20260906120609 | 58 | 355 | 0.0 | 0.0 | 0.00 | 0.00 | 0.00 | 75 | 1021.9 |
| 20260906115556 | 59 | 351 | 0.0 | 0.0 | 0.00 | 0.00 | 0.00 | 74 | 1021.8 |
| 20260906115051 | 59 | 351 | 0.0 | 0.0 | 0.00 | 0.00 | 0.00 | 74 | 1021.8 |
| 20260906114545 | 59 | 355 | 0.0 | 0.0 | 0.00 | 0.00 | 0.00 | 73 | 1021.8 |
| 20260906114039 | 60 | 355 | 0.0 | 0.9 | 0.00 | 0.00 | 0.00 | 73 | 1021.8 |
| 20260906113754 | 60 | 351 | 0.0 | 0.9 | 0.00 | 0.00 | 0.00 | 73 | 1021.8 |
| 20260906113028 | 60 | 351 | 0.0 | 0.0 | 0.00 | 0.00 | 0.00 | 72 | 1021.8 |
| 20260906112521 | 60 | 355 | 0.0 | 0.0 | 0.00 | 0.00 | 0.00 | 72 | 1021.7 |
| 20260906112014 | 60 | 355 | 0.0 | 0.0 | 0.00 | 0.00 | 0.00 | 72 | 1021.5 |
| 20260906111508 | 60 | 351 | 0.0 | 0.0 | 0.00 | 0.00 | 0.00 | 72 | 1021.5 |
| 20260906111002 | 61 | 351 | 0.0 | 0.0 | 0.00 | 0.00 | 0.00 | 71 | 1021.4 |
| 20260906110718 | 61 | 351 | 0.0 | 1.7 | 0.00 | 0.00 | 0.00 | 71 | 1021.4 |
| 20260906105951 | 61 | 351 | 0.0 | 1.7 | 0.00 | 0.00 | 0.00 | 71 | 1021.3 |
| 20260906105445 | 62 | 355 | 0.0 | 0.9 | 0.00 | 0.00 | 0.00 | 70 | 1021.3 |
| 20260906104938 | 62 | 355 | 0.0 | 0.0 | 0.00 | 0.00 | 0.00 | 69 | 1021.4 |
| 20260906104433 | 62 | 355 | 0.0 | 0.0 | 0.00 | 0.00 | 0.00 | 68 | 1021.3 |
| 20260906103928 | 63 | 355 | 0.0 | 0.0 | 0.00 | 0.00 | 0.00 | 67 | 1021.3 |
| 20260906103421 | 63 | 355 | 0.0 | 0.0 | 0.00 | 0.00 | 0.00 | 67 | 1021.3 |
| 20260906102914 | 63 | 355 | 0.0 | 0.0 | 0.00 | 0.00 | 0.00 | 67 | 1021.3 |
| 20260906102409 | 63 | 355 | 0.0 | 0.0 | 0.00 | 0.00 | 0.00 | 67 | 1021.3 |
| 20260906101903 | 63 | 355 | 0.0 | 0.0 | 0.00 | 0.00 | 0.00 | 68 | 1021.4 |
| 20260906101357 | 63 | 355 | 0.0 | 0.0 | 0.00 | 0.00 | 0.00 | 69 | 1021.4 |
| 20260906100850 | 63 | 355 | 0.0 | 0.0 | 0.00 | 0.00 | 0.00 | 68 | 1021.7 |
| 20260906100344 | 64 | 355 | 0.0 | 0.0 | 0.00 | 0.00 | 0.00 | 68 | 1021.8 |
| 20260906095838 | 64 | 355 | 0.0 | 0.0 | 0.00 | 0.00 | 0.00 | 69 | 1021.8 |
| 20260906095333 | 64 | 355 | 0.0 | 0.0 | 0.00 | 0.00 | 0.00 | 68 | 1021.9 |
| 20260906094826 | 64 | 355 | 0.0 | 0.0 | 0.00 | 0.00 | 0.00 | 68 | 1022.0 |
| 20260906094321 | 64 | 355 | 0.0 | 0.0 | 0.00 | 0.00 | 0.00 | 68 | 1021.9 |
| 20260906093814 | 64 | 355 | 0.0 | 0.0 | 0.00 | 0.00 | 0.00 | 67 | 1021.9 |
| 20260906093309 | 64 | 355 | 0.0 | 0.0 | 0.00 | 0.00 | 0.00 | 67 | 1022.0 |
| 20260906092803 | 64 | 355 | 0.0 | 0.0 | 0.00 | 0.00 | 0.00 | 67 | 1021.8 |
| 20260906092257 | 64 | 355 | 0.0 | 1.7 | 0.00 | 0.00 | 0.00 | 67 | 1021.8 |
| 20260906091750 | 63 | 355 | 0.0 | 1.7 | 0.00 | 0.00 | 0.00 | 67 | 1021.7 |
| 20260906091245 | 63 | 351 | 0.0 | 0.0 | 0.00 | 0.00 | 0.00 | 68 | 1021.5 |
| 20260906090739 | 63 | 351 | 0.0 | 0.0 | 0.00 | 0.00 | 0.00 | 69 | 1021.5 |
| 20260906090233 | 63 | 351 | 0.0 | 0.0 | 0.00 | 0.00 | 0.00 | 69 | 1021.4 |
| 20260906085726 | 63 | 351 | 0.0 | 0.0 | 0.00 | 0.00 | 0.00 | 69 | 1021.4 |
| 20260906085449 | 63 | 351 | 0.0 | 0.0 | 0.00 | 0.00 | 0.00 | 68 | 1021.4 |
| 20260906084714 | 63 | 351 | 0.0 | 0.0 | 0.00 | 0.00 | 0.00 | 67 | 1021.3 |
| 20260906084208 | 63 | 351 | 0.0 | 0.0 | 0.00 | 0.00 | 0.00 | 68 | 1021.3 |
| 20260906083703 | 64 | 351 | 0.0 | 0.0 | 0.00 | 0.00 | 0.00 | 67 | 1021.3 |
| 20260906082656 | 64 | 351 | 0.0 | 0.0 | 0.00 | 0.00 | 0.00 | 67 | 1021.4 |
| 20260906082152 | 64 | 351 | 0.0 | 0.0 | 0.00 | 0.00 | 0.00 | 67 | 1021.3 |
| 20260906081652 | 64 | 351 | 0.0 | 0.0 | 0.00 | 0.00 | 0.00 | 67 | 1021.3 |
| 20260906081153 | 64 | 351 | 0.0 | 0.0 | 0.00 | 0.00 | 0.00 | 68 | 1021.3 |
| 20260906080650 | 64 | 351 | 0.0 | 0.9 | 0.00 | 0.00 | 0.00 | 69 | 1021.4 |
| 20260906080151 | 63 | 351 | 0.0 | 0.9 | 0.00 | 0.00 | 0.00 | 69 | 1021.4 |
| 20260906075651 | 63 | 351 | 0.0 | 0.9 | 0.00 | 0.00 | 0.00 | 70 | 1021.5 |
| 20260906075150 | 63 | 351 | 0.0 | 0.0 | 0.00 | 0.00 | 0.00 | 71 | 1021.5 |
| 20260906074651 | 63 | 351 | 0.0 | 0.0 | 0.00 | 0.00 | 0.00 | 72 | 1021.5 |
| 20260906074150 | 63 | 351 | 0.0 | 0.0 | 0.00 | 0.00 | 0.00 | 71 | 1021.7 |
| 20260906073652 | 63 | 351 | 0.0 | 1.7 | 0.00 | 0.00 | 0.00 | 72 | 1021.5 |
| 20260906073151 | 63 | 351 | 0.0 | 1.7 | 0.00 | 0.00 | 0.00 | 72 | 1021.5 |
| 20260906072650 | 63 | 348 | 0.0 | 0.0 | 0.00 | 0.00 | 0.00 | 74 | 1021.5 |
| 20260906072149 | 63 | 348 | 0.0 | 0.0 | 0.00 | 0.00 | 0.00 | 76 | 1021.5 |
| 20260906071650 | 63 | 348 | 0.0 | 0.0 | 0.00 | 0.00 | 0.00 | 75 | 1021.5 |
| 20260906071150 | 63 | 348 | 0.0 | 0.0 | 0.00 | 0.00 | 0.00 | 76 | 1021.7 |
| 20260906071140 | 63 | 348 | 0.0 | 0.0 | 0.00 | 0.00 | 0.00 | 75 | 1021.7 |
| 20260906070149 | 63 | 348 | 0.0 | 0.0 | 0.00 | 0.00 | 0.00 | 75 | 1021.7 |
| 20260906065650 | 63 | 348 | 0.0 | 0.0 | 0.00 | 0.00 | 0.00 | 75 | 1021.7 |
| 20260906065149 | 63 | 348 | 0.0 | 0.0 | 0.00 | 0.00 | 0.00 | 75 | 1021.7 |
| 20260906064651 | 63 | 348 | 0.0 | 0.0 | 0.00 | 0.00 | 0.00 | 75 | 1021.8 |
| 20260906064150 | 63 | 348 | 0.0 | 0.0 | 0.00 | 0.00 | 0.00 | 75 | 1021.9 |
| 20260906063651 | 63 | 348 | 0.0 | 0.0 | 0.00 | 0.00 | 0.00 | 74 | 1021.9 |
| 20260906063627 | 63 | 348 | 0.0 | 0.0 | 0.00 | 0.00 | 0.00 | 74 | 1021.9 |
| 20260906062651 | 63 | 348 | 0.0 | 0.0 | 0.00 | 0.00 | 0.00 | 73 | 1022.0 |
| 20260906062151 | 64 | 348 | 0.0 | 0.0 | 0.00 | 0.00 | 0.00 | 73 | 1021.9 |
| 20260906061651 | 64 | 348 | 0.0 | 0.0 | 0.00 | 0.00 | 0.00 | 73 | 1021.8 |
| 20260906061149 | 64 | 348 | 0.0 | 0.0 | 0.00 | 0.00 | 0.00 | 73 | 1021.7 |
| 20260906060651 | 64 | 348 | 0.0 | 0.0 | 0.00 | 0.00 | 0.00 | 73 | 1021.7 |
| 20260906060146 | 64 | 348 | 0.0 | 0.0 | 0.00 | 0.00 | 0.00 | 73 | 1021.8 |
| 20260906055639 | 64 | 348 | 0.0 | 0.0 | 0.00 | 0.00 | 0.00 | 73 | 1021.9 |
| 20260906055134 | 64 | 348 | 0.0 | 0.0 | 0.00 | 0.00 | 0.00 | 73 | 1021.9 |
| 20260906054626 | 64 | 348 | 0.0 | 0.0 | 0.00 | 0.00 | 0.00 | 73 | 1021.8 |
| 20260906054121 | 65 | 348 | 0.0 | 0.0 | 0.00 | 0.00 | 0.00 | 72 | 1021.8 |
| 20260906053615 | 65 | 348 | 0.0 | 0.0 | 0.00 | 0.00 | 0.00 | 71 | 1021.7 |
| 20260906053108 | 65 | 348 | 0.0 | 0.0 | 0.00 | 0.00 | 0.00 | 71 | 1021.5 |
| 20260906052604 | 65 | 348 | 0.0 | 0.0 | 0.00 | 0.00 | 0.00 | 70 | 1021.7 |
| 20260906052056 | 66 | 348 | 0.0 | 0.0 | 0.00 | 0.00 | 0.00 | 69 | 1021.7 |
| 20260906051551 | 66 | 348 | 0.0 | 0.0 | 0.00 | 0.00 | 0.00 | 69 | 1021.7 |
| 20260906051313 | 66 | 348 | 0.0 | 0.9 | 0.00 | 0.00 | 0.00 | 69 | 1021.5 |
| 20260906050538 | 67 | 348 | 0.0 | 0.9 | 0.00 | 0.00 | 0.00 | 68 | 1021.5 |
| 20260906050258 | 67 | 348 | 0.0 | 0.0 | 0.00 | 0.00 | 0.00 | 68 | 1021.7 |
| 20260906045747 | 67 | 348 | 0.0 | 0.0 | 0.00 | 0.00 | 0.00 | 67 | 1021.5 |
| 20260906045021 | 67 | 348 | 0.0 | 0.9 | 0.00 | 0.00 | 0.00 | 67 | 1021.5 |
| 20260906044514 | 67 | 348 | 0.0 | 0.9 | 0.00 | 0.00 | 0.00 | 66 | 1021.7 |
| 20260906044235 | 67 | 349 | 0.0 | 0.0 | 0.00 | 0.00 | 0.00 | 66 | 1021.8 |
| 20260906043502 | 67 | 349 | 0.0 | 0.0 | 0.00 | 0.00 | 0.00 | 65 | 1021.8 |
| 20260906042957 | 68 | 349 | 0.0 | 0.0 | 0.00 | 0.00 | 0.00 | 65 | 1021.8 |
| 20260906042451 | 68 | 349 | 0.0 | 0.0 | 0.00 | 0.00 | 0.00 | 64 | 1021.8 |
| 20260906041945 | 68 | 349 | 0.0 | 0.0 | 0.00 | 0.00 | 0.00 | 63 | 1021.8 |
| 20260906041439 | 69 | 349 | 0.0 | 0.0 | 0.00 | 0.00 | 0.00 | 61 | 1021.8 |
| 20260906041159 | 69 | 349 | 0.0 | 0.9 | 0.00 | 0.00 | 0.00 | 60 | 1021.8 |
| 20260906040639 | 69 | 349 | 0.0 | 0.9 | 0.00 | 0.00 | 0.00 | 60 | 1021.8 |
| 20260906040144 | 69 | 349 | 0.0 | 0.0 | 0.00 | 0.00 | 0.00 | 60 | 1021.8 |
| 20260906035411 | 70 | 349 | 0.0 | 0.9 | 0.00 | 0.00 | 0.00 | 58 | 1021.8 |
| 20260906035126 | 70 | 349 | 0.0 | 0.9 | 0.00 | 0.00 | 0.00 | 58 | 1021.9 |
| 20260906034359 | 71 | 349 | 0.0 | 0.0 | 0.00 | 0.00 | 0.00 | 57 | 1021.9 |
| 20260906033852 | 71 | 349 | 0.0 | 0.0 | 0.00 | 0.00 | 0.00 | 56 | 1021.9 |
| 20260906033347 | 71 | 349 | 0.0 | 2.6 | 0.00 | 0.00 | 0.00 | 54 | 1021.9 |
| 20260906032840 | 72 | 349 | 0.9 | 2.6 | 0.00 | 0.00 | 0.00 | 54 | 1021.7 |
| 20260906032337 | 71 | 235 | 0.9 | 2.6 | 0.00 | 0.00 | 0.00 | 54 | 1021.7 |
| 20260906031837 | 71 | 235 | 0.9 | 2.6 | 0.00 | 0.00 | 0.00 | 53 | 1021.5 |
| 20260906031336 | 71 | 234 | 0.9 | 2.6 | 0.00 | 0.00 | 0.00 | 53 | 1021.5 |
| 20260906030833 | 71 | 241 | 0.9 | 2.6 | 0.00 | 0.00 | 0.00 | 51 | 1021.4 |
| 20260906030330 | 71 | 241 | 0.0 | 2.6 | 0.00 | 0.00 | 0.00 | 52 | 1021.4 |
| 20260906030321 | 71 | 241 | 0.0 | 1.7 | 0.00 | 0.00 | 0.00 | 51 | 1021.2 |
| 20260906025326 | 71 | 240 | 0.0 | 1.7 | 0.00 | 0.00 | 0.00 | 50 | 1021.2 |
| 20260906024826 | 71 | 240 | 0.0 | 1.7 | 0.00 | 0.00 | 0.00 | 49 | 1021.1 |
| 20260906024325 | 70 | 240 | 0.0 | 1.7 | 0.00 | 0.00 | 0.00 | 49 | 1021.1 |
| 20260906024312 | 70 | 240 | 0.9 | 2.6 | 0.00 | 0.00 | 0.00 | 50 | 1021.1 |
| 20260906023322 | 70 | 240 | 0.9 | 2.6 | 0.00 | 0.00 | 0.00 | 51 | 1020.9 |
| 20260906023040 | 71 | 240 | 0.0 | 0.9 | 0.00 | 0.00 | 0.00 | 51 | 1020.8 |
| 20260906022323 | 71 | 240 | 0.0 | 0.9 | 0.00 | 0.00 | 0.00 | 49 | 1020.7 |
| 20260906021821 | 71 | 240 | 0.0 | 0.9 | 0.00 | 0.00 | 0.00 | 49 | 1020.6 |
| 20260906021320 | 72 | 240 | 0.0 | 0.9 | 0.00 | 0.00 | 0.00 | 48 | 1020.3 |
| 20260906020817 | 72 | 240 | 0.0 | 1.7 | 0.00 | 0.00 | 0.00 | 47 | 1020.0 |
| 20260906020315 | 72 | 240 | 0.0 | 1.7 | 0.00 | 0.00 | 0.00 | 47 | 1019.9 |
| 20260906015813 | 73 | 240 | 0.0 | 1.7 | 0.00 | 0.00 | 0.00 | 46 | 1020.0 |
| 20260906015309 | 73 | 240 | 0.0 | 1.7 | 0.00 | 0.00 | 0.00 | 47 | 1019.9 |
| 20260906014808 | 74 | 240 | 0.0 | 0.9 | 0.00 | 0.00 | 0.00 | 45 | 1019.7 |
| 20260906014306 | 74 | 240 | 0.0 | 0.9 | 0.00 | 0.00 | 0.00 | 45 | 1019.7 |
| 20260906013807 | 74 | 240 | 0.0 | 0.0 | 0.00 | 0.00 | 0.00 | 44 | 1019.7 |
| 20260906013300 | 75 | 240 | 0.0 | 0.0 | 0.00 | 0.00 | 0.00 | 43 | 1019.7 |
| 20260906012755 | 76 | 240 | 0.0 | 0.0 | 0.00 | 0.00 | 0.00 | 44 | 1019.6 |
| 20260906012735 | 77 | 240 | 0.0 | 0.0 | 0.00 | 0.00 | 0.00 | 44 | 1019.7 |
| 20260906011743 | 78 | 234 | 0.0 | 0.0 | 0.00 | 0.00 | 0.00 | 44 | 1019.7 |
| 20260906011237 | 79 | 234 | 0.0 | 0.0 | 0.00 | 0.00 | 0.00 | 44 | 1019.7 |
| 20260906010732 | 80 | 234 | 0.0 | 1.7 | 0.00 | 0.00 | 0.00 | 41 | 1019.6 |
| 20260906010232 | 80 | 234 | 0.0 | 1.7 | 0.00 | 0.00 | 0.00 | 42 | 1019.7 |
| 20260906005732 | 81 | 234 | 0.0 | 0.9 | 0.00 | 0.00 | 0.00 | 38 | 1019.7 |
| 20260906005233 | 82 | 234 | 0.0 | 1.7 | 0.00 | 0.00 | 0.00 | 36 | 1019.9 |
| 20260906004732 | 83 | 234 | 0.0 | 1.7 | 0.00 | 0.00 | 0.00 | 40 | 1020.0 |
| 20260906004457 | 83 | 234 | 0.9 | 2.6 | 0.00 | 0.00 | 0.00 | 38 | 1020.0 |
| 20260906003733 | 84 | 234 | 0.0 | 2.6 | 0.00 | 0.00 | 0.00 | 38 | 1020.0 |
| 20260906003231 | 85 | 234 | 0.0 | 0.9 | 0.00 | 0.00 | 0.00 | 37 | 1020.0 |
| 20260906002732 | 85 | 234 | 0.0 | 0.0 | 0.00 | 0.00 | 0.00 | 34 | 1019.9 |
| 20260906002232 | 85 | 234 | 0.0 | 0.9 | 0.00 | 0.00 | 0.00 | 32 | 1019.9 |
| 20260906001733 | 86 | 234 | 0.0 | 0.9 | 0.00 | 0.00 | 0.00 | 31 | 1019.9 |
| 20260906001229 | 86 | 234 | 0.0 | 0.9 | 0.00 | 0.00 | 0.00 | 30 | 1019.9 |
| 20260906000729 | 87 | 234 | 0.0 | 1.7 | 0.00 | 0.00 | 0.00 | 30 | 1019.9 |
| 20260906000229 | 87 | 234 | 0.0 | 1.7 | 0.00 | 0.00 | 0.00 | 29 | 1019.7 |
| 20260905235730 | 87 | 234 | 0.0 | 1.7 | 0.00 | 0.00 | 0.00 | 28 | 1019.9 |
| 20260905235455 | 87 | 234 | 0.0 | 2.6 | 0.00 | 0.00 | 0.00 | 29 | 1019.9 |
| 20260905234954 | 87 | 234 | 0.0 | 2.6 | 0.00 | 0.00 | 0.00 | 27 | 1019.9 |
| 20260905234229 | 88 | 234 | 0.9 | 2.6 | 0.00 | 0.00 | 0.00 | 27 | 1019.9 |
| 20260905233729 | 88 | 196 | 0.9 | 2.6 | 0.00 | 0.00 | 0.00 | 27 | 1019.7 |
| 20260905233456 | 87 | 195 | 0.9 | 2.6 | 0.00 | 0.00 | 0.00 | 28 | 1019.7 |
| 20260905232725 | 87 | 200 | 0.9 | 4.3 | 0.00 | 0.00 | 0.00 | 27 | 1019.9 |
| 20260905232224 | 87 | 206 | 0.9 | 4.3 | 0.00 | 0.00 | 0.00 | 29 | 1019.9 |
| 20260905231725 | 87 | 221 | 0.9 | 2.6 | 0.00 | 0.00 | 0.00 | 29 | 1019.9 |
| 20260905231224 | 86 | 188 | 0.9 | 2.6 | 0.00 | 0.00 | 0.00 | 30 | 1019.9 |
| 20260905230724 | 86 | 188 | 0.9 | 2.6 | 0.00 | 0.00 | 0.00 | 30 | 1019.9 |
| 20260905230222 | 86 | 198 | 0.9 | 1.7 | 0.00 | 0.00 | 0.00 | 31 | 1019.9 |
| 20260905225942 | 86 | 198 | 0.9 | 2.6 | 0.00 | 0.00 | 0.00 | 31 | 1019.9 |
| 20260905225222 | 86 | 198 | 0.9 | 2.6 | 0.00 | 0.00 | 0.00 | 32 | 1019.9 |
| 20260905224723 | 86 | 198 | 0.0 | 1.7 | 0.00 | 0.00 | 0.00 | 31 | 1020.0 |
| 20260905224443 | 86 | 198 | 0.0 | 1.7 | 0.00 | 0.00 | 0.00 | 33 | 1020.0 |
| 20260905223722 | 86 | 198 | 0.0 | 1.7 | 0.00 | 0.00 | 0.00 | 30 | 1020.0 |
| 20260905223222 | 87 | 198 | 0.0 | 1.7 | 0.00 | 0.00 | 0.00 | 30 | 1020.1 |
| 20260905222716 | 87 | 200 | 0.0 | 3.5 | 0.00 | 0.00 | 0.00 | 30 | 1020.1 |
| 20260905222210 | 88 | 200 | 0.9 | 3.5 | 0.00 | 0.00 | 0.00 | 28 | 1020.0 |
| 20260905221924 | 89 | 280 | 0.9 | 4.3 | 0.00 | 0.00 | 0.00 | 30 | 1020.0 |
| 20260905221157 | 88 | 126 | 1.7 | 4.3 | 0.00 | 0.00 | 0.00 | 30 | 1020.1 |
| 20260905220652 | 88 | 109 | 1.7 | 4.3 | 0.00 | 0.00 | 0.00 | 31 | 1020.1 |
| 20260905220145 | 87 | 199 | 1.7 | 5.2 | 0.00 | 0.00 | 0.00 | 35 | 1020.2 |
| 20260905215640 | 86 | 192 | 1.7 | 5.2 | 0.00 | 0.00 | 0.00 | 36 | 1020.2 |